EUTELSAT 117 WEST B (41589 NORAD) Tracking and Keplerian Element Data

This shows tracking and keplerian element data for the satellite.

Feedback or suggestion? Click here.




ElementValue
Catalog41589
NameEUTELSAT 117 WEST B
Epoch Orbit1167
Epoch Day229.15878122
Epoch Year2019
RAAN239.5394
Inclination0.0163
Eccentricity1.69E-05
Argument of Perigee97.1394
Mean Anonmoly288.7247
Mean Motion1.00271928
Decay Rate-2.4E-07
L11 41589U 16038B 19229.15878122 -.00000024 00000-0 00000+0 0 9998
L22 41589 0.0163 239.5394 0000169 97.1394 288.7247 1.00271928 11676

Live tracking and technical data element details for EUTELSAT 117 WEST B (NORAD 41589). EUTELSAT 117 WEST B can be tracked NOW for your location showing map with azimuth and elevation plus other details from your city location.

Track the satellite on the map from your city or location and see movement details for azimuth, elevation, latitude, longitude, range, height, and movement on the map or in text.







IsCatalogInMostPopularTable: catalog: 41589, numindb: 296
Update: records affected: 1



GetName: 41589 EUTELSAT 117 WEST B

Hit Count: updated at: Wed, 21 Aug 2019 11:41:44 GMT